This is the latest recevied weather packets stored in our database for station/object LZ1HCO-25. If no packets are shown the sender has not sent any weather packets the latest 10 day(s).
| Time | Temp. | Humidity | Pressure | Rain* | Wind** | Luminosity | Snow |
|---|---|---|---|---|---|---|---|
| 1777898747 | 22.22° C | 40% | 971 hPa | - | - | 0 W/m² | - |
| 1777898435 | 22.78° C | 44% | 971 hPa | - | - | 0 W/m² | - |
| 1777898124 | 22.78° C | 42% | 971 hPa | - | - | 0 W/m² | - |
| 1777897812 | 22.78° C | 41% | 971 hPa | - | - | 0 W/m² | - |
| 1777897501 | 22.78° C | 47% | 971 hPa | - | - | 0 W/m² | - |
| 1777897190 | 22.78° C | 43% | 971 hPa | - | - | 0 W/m² | - |
| 1777896878 | 22.78° C | 44% | 971 hPa | - | - | 0 W/m² | - |
| 1777896567 | 22.78° C | 44% | 971 hPa | - | - | 0 W/m² | - |
| 1777896256 | 22.22° C | 42% | 971 hPa | - | - | 0 W/m² | - |
| 1777895944 | 22.22° C | 42% | 971 hPa | - | - | 0 W/m² | - |
| 1777895633 | 22.22° C | 41% | 971 hPa | - | - | 0 W/m² | - |
| 1777895322 | 22.22° C | 43% | 971 hPa | - | - | 0 W/m² | - |
| 1777895010 | 22.22° C | 43% | 971 hPa | - | - | 0 W/m² | - |
| 1777894699 | 22.22° C | 45% | 971 hPa | - | - | 0 W/m² | - |
| 1777894388 | 22.78° C | 48% | 971 hPa | - | - | 0 W/m² | - |
| 1777894076 | 21.67° C | 44% | 971 hPa | - | - | 0 W/m² | - |
| 1777893765 | 21.67° C | 47% | 971 hPa | - | - | 0 W/m² | - |
| 1777893454 | 23.33° C | 46% | 971 hPa | - | - | 0 W/m² | - |
| 1777893142 | 22.78° C | 48% | 971 hPa | - | - | 0 W/m² | - |
| 1777892831 | 23.33° C | 47% | 971 hPa | - | - | 0 W/m² | - |
| 1777892519 | 20.56° C | 47% | 971 hPa | - | - | 0 W/m² | - |
| 1777892208 | 21.67° C | 49% | 971 hPa | - | - | 0 W/m² | - |
| 1777891897 | 21.11° C | 48% | 971 hPa | - | - | 0 W/m² | - |
| 1777891585 | 20° C | 50% | 971 hPa | - | - | 0 W/m² | - |
| 1777891274 | 20.56° C | 48% | 971 hPa | - | - | 0 W/m² | - |
* Rain since midnight (hover to see other rain measurements)
** Current wind speed in m/s (hover to see current wind gust speed)